[[{"header":{"parameterUnit":"m.s-1","parameterCategory":2,"la1":30.2991,"la2":30.254,"lo1":-89.0895,"lo2":-89.0444,"dy":0.0017,"dx":0.0017,"nx":28,"ny":28,"refTime":"2025-03-25T09:00:00:Z","depth":"0","parameterNumber":2,"parameterNumberName":"U-component_of_CURRENTS"},"data":[0,0,0,0,0,0,0,0,0,0,0,0,0,0,0,0,0,0,0,0,0,0,0,0,0,0,0,0,0,0,0,0,0,0,0,0,0,0,0,0,0,0,0,0,0,0,0,0,0,0,0,0,0,0,0,0,0,0,0.223,0.223,0,0.2224,0.2224,0.2224,0.221,0.2211,0.2211,0.2211,0.2197,0.2197,0.2196,0,0,0,0,0,0,0,0,0,0,0,0,0,0.2299,0.2297,0.223,0.223,0.223,0.2224,0.2224,0.2223,0.221,0.2211,0.2211,0.2211,0.2197,0.2197,0.2196,0,0,0,0,0,0,0,0,0,0,0,0,0,0.2275,0.2296,0.223,0.2226,0.2226,0.2224,0.2224,0.2223,0.221,0.2211,0.2211,0.2211,0.2197,0.2197,0.2196,0.219,0,0,0.2194,0.2194,0,0,0,0,0,0,0,0,0.2276,0.2272,0.2226,0.2226,0.2226,0.2221,0.2244,0.2213,0.221,0.2212,0.2211,0.2211,0.2207,0.2205,0.2199,0.219,0.2189,0.2194,0.2194,0.2194,0.2193,0,0,0,0,0,0,0,0.2278,0.2273,0.2224,0.2227,0.2227,0.2249,0.2244,0.2238,0.2206,0.2212,0.2212,0.2217,0.2206,0.22,0.2199,0.2189,0.2194,0.2194,0.2193,0.2193,0.2168,0.2168,0,0,0,0,0,0,0.2282,0.2273,0.2224,0.2224,0.2256,0.2247,0.2242,0.222,0.2206,0.2205,0.2217,0.2217,0.2201,0.2199,0.2198,0.2206,0.2194,0.2193,0.2193,0.2168,0.2168,0.2168,0,0,0,0,0,0,0.2283,0.2276,0.2224,0.2254,0.2249,0.2246,0.2221,0.222,0.2217,0.2211,0.2209,0.2217,0.2201,0.2199,0.2181,0.2205,0.2193,0.2192,0.2169,0.2168,0.2168,0.2212,0,0,0,0,0,0,0.2284,0.2276,0.2265,0.2253,0.2248,0.2219,0.2221,0.222,0.2222,0.2221,0.221,0.2208,0.2201,0.2182,0.2181,0.2204,0.2192,0.2169,0.2169,0.2168,0.2211,0.2213,0.2215,0,0,0,0,0,0.2286,0.2265,0.2263,0.2259,0.223,0.2219,0.2217,0.2215,0.2222,0.2213,0.2202,0.2209,0.2179,0.2181,0.2179,0.2203,0.2169,0.2169,0.2168,0.221,0.2212,0.2215,0,0,0,0,0,0,0.2285,0.2262,0.226,0.2231,0.2227,0.2218,0.2216,0.2218,0.2204,0.2204,0.2199,0.2195,0.2191,0.2182,0.2185,0.2191,0.2178,0.2177,0.221,0.2213,0.2215,0.222,0.2191,0,0,0,0,0,0.2281,0.2264,0.2248,0.2231,0.2226,0.2224,0.2223,0.2219,0.2208,0.2202,0.2197,0.2189,0.2186,0.2186,0.2173,0.2176,0.219,0.2189,0.2191,0.2193,0.2194,0.2234,0.2241,0.2166,0.2166,0.2166,0,0,0.2284,0.2268,0.2261,0.2233,0.223,0.2223,0.2222,0.2216,0.2222,0.2203,0.2203,0.2192,0.2184,0.2184,0.2183,0.2182,0.2223,0.2193,0.2195,0.2195,0.2234,0.2242,0.2249,0.2165,0.2165,0.2165,0,0,0.2278,0.2257,0.2242,0.2235,0.2228,0.2226,0.2226,0.2214,0.2218,0.2212,0.2206,0.2205,0.2194,0.2199,0.2201,0.2206,0.2227,0.2203,0.2229,0.2268,0.2275,0.2282,0.2319,0.2329,0.2212,0.2212,0.2212,0,0.2289,0.2252,0.224,0.2225,0.2228,0.2229,0.2223,0.2227,0.2215,0.2221,0.2214,0.221,0.2207,0.2223,0.2225,0.2216,0.2236,0.2226,0.2274,0.2281,0.2287,0.2324,0.2334,0.2214,0.2214,0.2214,0.2214,0,0.2269,0.2246,0.2238,0.2223,0.2225,0.2217,0.2224,0.2229,0.2238,0.2242,0.225,0.2241,0.2242,0.2248,0.224,0.228,0.228,0.2271,0.2276,0.2298,0.2334,0.2344,0.2217,0.2216,0.2216,0.2215,0,0,0.227,0.2234,0.2229,0.2226,0.2221,0.2222,0.2239,0.2249,0.2269,0.2266,0.2289,0.229,0.2286,0.2286,0.2284,0.2319,0.2387,0.2316,0.2317,0.2368,0.2477,0.2324,0.232,0.2391,0.2393,0.2394,0.249,0,0.2261,0.2232,0.222,0.2217,0.2206,0.2222,0.2242,0.2259,0.2275,0.2295,0.2307,0.2318,0.2303,0.2309,0.2342,0.2367,0.2412,0.2362,0.2435,0.2437,0.2311,0.2326,0.2126,0.218,0.2499,0.2501,0.2502,0,0.2241,0.2222,0.221,0.2213,0.2212,0.2221,0.2259,0.2274,0.2308,0.2322,0.2337,0.2341,0.2379,0.2368,0.2441,0.241,0.2448,0.2474,0.2478,0.2324,0.2301,0.2206,0.2186,0.2059,0.2517,0.2516,0.2515,0,0.2247,0.2219,0.2214,0.2213,0.2217,0.223,0.2243,0.2277,0.2296,0.2337,0.2353,0.2389,0.2413,0.2461,0.2499,0.2482,0.2585,0.2571,0.2476,0.2467,0.2302,0.2274,0.2174,0.2642,0.2642,0.2641,0.2641,0,0.224,0.2227,0.2213,0.2212,0.2221,0.2228,0.2252,0.2278,0.2308,0.2326,0.236,0.2381,0.244,0.2491,0.2526,0.2517,0.2612,0.2478,0.2476,0.2308,0.228,0.2163,0.2139,0.2645,0.2644,0.2644,0.2643,0,0.2234,0.2225,0.2217,0.2218,0.2221,0.2229,0.2246,0.226,0.2296,0.2323,0.2336,0.2396,0.2435,0.2486,0.2573,0.2533,0.2445,0.2546,0.2335,0.2302,0.2012,0.1998,0.1887,0.1853,0.2425,0.2422,0.2419,0,0.2219,0.2216,0.2224,0.2222,0.2216,0.2222,0.2228,0.2256,0.2263,0.232,0.2329,0.2379,0.2384,0.2432,0.2374,0.2378,0.2349,0.2202,0.2107,0.1954,0.1941,0.1911,0.1892,0.1934,0.1928,0.1922,0.1918,0,0.219,0.2205,0.2205,0.221,0.2212,0.2204,0.2205,0.2209,0.2239,0.2254,0.2277,0.2288,0.2272,0.2133,0.2102,0.2093,0.2,0.2085,0.1993,0.1584,0.1482,0.1461,0.1932,0.187,0.1875,0.1878,0.1881,0.1883,0.2169,0.2171,0.2187,0.2194,0.2191,0.2171,0.2139,0.2139,0.2135,0.2105,0.2175,0.2106,0.1927,0.1805,0.1791,0.1522,0.1659,0.1404,0.1421,0.1422,0.1294,0.1636,0.1514,0.1517,0.1519,0.1521,0.1523,0,0.2129,0.2151,0.216,0.2159,0.2138,0.2143,0.211,0.2047,0.2001,0.1967,0.1944,0.1675,0.1458,0.1316,0.0988,0.0861,0.0893,0.0824,0.075,0.0788,0.113,0.1005,0.0682,0.0682,0.0682,0.0682,0.0683,0.0683,0.2107,0.2115,0.2135,0.2106,0.209,0.1995,0.195,0.187,0.1801,0.1599,0.1414,0.1323,0.103,0.0624,0.0348,0.0352,0.0347,0.0256,0.039,0.06,0.0657,0.071,0.0583,0.0177,0.0177,-0.0031,-0.0033,-0.0035]},{"header":{"parameterUnit":"m.s-1","parameterCategory":2,"la1":30.2991,"la2":30.254,"lo1":-89.0895,"lo2":-89.0444,"dy":0.0017,"dx":0.0017,"nx":28,"ny":28,"refTime":"2025-03-25T09:00:00:Z","depth":"0","parameterNumber":3,"parameterNumberName":"V-component_of_CURRENTS"},"data":[0,0,0,0,0,0,0,0,0,0,0,0,0,0,0,0,0,0,0,0,0,0,0,0,0,0,0,0,0,0,0,0,0,0,0,0,0,0,0,0,0,0,0,0,0,0,0,0,0,0,0,0,0,0,0,0,0,0,-0.0849,-0.085,0,-0.0906,-0.0906,-0.0906,-0.0924,-0.0924,-0.0924,-0.0924,-0.1004,-0.1006,-0.1008,0,0,0,0,0,0,0,0,0,0,0,0,0,-0.0753,-0.0754,-0.0848,-0.085,-0.0851,-0.0906,-0.0906,-0.0906,-0.0924,-0.0924,-0.0924,-0.0924,-0.1004,-0.1006,-0.1008,0,0,0,0,0,0,0,0,0,0,0,0,0,-0.0795,-0.0754,-0.0848,-0.0871,-0.0874,-0.0906,-0.0906,-0.0906,-0.0923,-0.0924,-0.0924,-0.0925,-0.1003,-0.1006,-0.1009,-0.1018,0,0,-0.1017,-0.1018,0,0,0,0,0,0,0,0,-0.0792,-0.0798,-0.0866,-0.0869,-0.0873,-0.0913,-0.0902,-0.0947,-0.0923,-0.0898,-0.0924,-0.0925,-0.098,-0.0984,-0.0985,-0.1022,-0.1026,-0.1017,-0.1019,-0.102,-0.1021,0,0,0,0,0,0,0,-0.0789,-0.0795,-0.0865,-0.0867,-0.0872,-0.0878,-0.0883,-0.091,-0.0932,-0.0901,-0.0903,-0.0919,-0.0981,-0.0983,-0.0988,-0.1027,-0.1017,-0.102,-0.1022,-0.1023,-0.1101,-0.1101,0,0,0,0,0,0,-0.0794,-0.0793,-0.0863,-0.0867,-0.0839,-0.0879,-0.0886,-0.0895,-0.0931,-0.0939,-0.0919,-0.092,-0.0978,-0.0984,-0.0991,-0.1016,-0.102,-0.1023,-0.1025,-0.11,-0.1101,-0.1101,0,0,0,0,0,0,-0.0792,-0.0799,-0.0861,-0.0836,-0.0845,-0.0881,-0.0891,-0.0896,-0.0899,-0.0946,-0.0953,-0.0918,-0.0978,-0.0987,-0.1013,-0.1019,-0.1024,-0.1027,-0.11,-0.1101,-0.1101,-0.1061,0,0,0,0,0,0,-0.0788,-0.0798,-0.0801,-0.0836,-0.0847,-0.0865,-0.0892,-0.0897,-0.0911,-0.0913,-0.0947,-0.0955,-0.0979,-0.1008,-0.1015,-0.1023,-0.1029,-0.1099,-0.11,-0.1101,-0.1061,-0.106,-0.1058,0,0,0,0,0,-0.0785,-0.0786,-0.0801,-0.081,-0.0852,-0.0865,-0.0869,-0.0893,-0.091,-0.0899,-0.0933,-0.0954,-0.1018,-0.101,-0.1019,-0.1028,-0.1099,-0.11,-0.1101,-0.1062,-0.106,-0.1058,0,0,0,0,0,0,-0.0754,-0.079,-0.0806,-0.0821,-0.0837,-0.087,-0.0867,-0.089,-0.0906,-0.0912,-0.0954,-0.0964,-0.0992,-0.1015,-0.1005,-0.1054,-0.1064,-0.1067,-0.1032,-0.103,-0.1029,-0.099,-0.1031,0,0,0,0,0,-0.0749,-0.0759,-0.0789,-0.0805,-0.0802,-0.0834,-0.0844,-0.0861,-0.0888,-0.0895,-0.0926,-0.0964,-0.1002,-0.1018,-0.1048,-0.1069,-0.1026,-0.1083,-0.1082,-0.108,-0.1056,-0.0987,-0.0975,-0.1104,-0.1104,-0.1104,0,0,-0.0754,-0.0769,-0.0782,-0.0799,-0.0809,-0.0804,-0.0838,-0.0846,-0.0856,-0.0903,-0.0918,-0.0958,-0.1007,-0.1033,-0.1048,-0.1052,-0.102,-0.1081,-0.1079,-0.1055,-0.0986,-0.0973,-0.0961,-0.1105,-0.1104,-0.1104,0,0,-0.074,-0.0763,-0.0749,-0.0754,-0.0766,-0.0785,-0.0786,-0.0811,-0.0826,-0.085,-0.0896,-0.0927,-0.0981,-0.101,-0.1037,-0.1042,-0.1015,-0.1069,-0.1027,-0.0962,-0.0949,-0.0937,-0.0853,-0.0834,-0.1067,-0.1066,-0.1066,0,-0.0737,-0.073,-0.0749,-0.0725,-0.0737,-0.0772,-0.076,-0.0777,-0.0817,-0.0831,-0.0848,-0.0922,-0.0964,-0.0999,-0.1007,-0.1035,-0.0982,-0.103,-0.0954,-0.0942,-0.0931,-0.0847,-0.0827,-0.1065,-0.1065,-0.1065,-0.1065,0,-0.0707,-0.0698,-0.0687,-0.0676,-0.0686,-0.0684,-0.0713,-0.0726,-0.076,-0.0784,-0.0818,-0.0867,-0.0904,-0.0939,-0.0977,-0.0946,-0.0928,-0.0956,-0.0948,-0.0914,-0.0829,-0.0809,-0.1062,-0.1063,-0.1063,-0.1064,0,0,-0.0701,-0.0671,-0.0666,-0.0653,-0.0663,-0.0669,-0.0682,-0.0702,-0.0706,-0.0743,-0.0738,-0.0817,-0.0833,-0.0862,-0.0914,-0.0872,-0.076,-0.0877,-0.0874,-0.0771,-0.058,-0.0557,-0.0532,-0.0765,-0.0762,-0.0759,-0.0546,0,-0.0666,-0.062,-0.0623,-0.0601,-0.058,-0.0618,-0.0628,-0.0657,-0.0682,-0.0679,-0.0726,-0.0737,-0.0808,-0.0817,-0.0789,-0.0768,-0.0705,-0.0812,-0.0646,-0.064,-0.0606,-0.0508,-0.0492,-0.03,-0.0526,-0.0523,-0.052,0,-0.0629,-0.0602,-0.0569,-0.056,-0.0554,-0.0553,-0.0579,-0.059,-0.0603,-0.0615,-0.0627,-0.0649,-0.0625,-0.0674,-0.0578,-0.0637,-0.0595,-0.0571,-0.0563,-0.0536,-0.0578,-0.0375,-0.0254,-0.0264,-0.0488,-0.0491,-0.0493,0,-0.0616,-0.057,-0.055,-0.0547,-0.0538,-0.0539,-0.0545,-0.0568,-0.0561,-0.0552,-0.0515,-0.0519,-0.0471,-0.0436,-0.0404,-0.0469,-0.0258,-0.0343,-0.0276,-0.0274,-0.0223,-0.0222,-0.0072,-0.0235,-0.0235,-0.0236,-0.0236,0,-0.0587,-0.0561,-0.0535,-0.0522,-0.0498,-0.0509,-0.0487,-0.0502,-0.0479,-0.0425,-0.0463,-0.0389,-0.0399,-0.0306,-0.0313,-0.0199,-0.0173,-0.0219,-0.0203,-0.0211,-0.0211,-0.0193,-0.0219,-0.0228,-0.0229,-0.0231,-0.0232,0,-0.0567,-0.0553,-0.0518,-0.0496,-0.0487,-0.0471,-0.0435,-0.0409,-0.0393,-0.0308,-0.0284,-0.0229,-0.0098,-0.0096,0.0004,-0.0042,0.0051,0.0055,0.0055,0.0067,0.0062,0.0037,0.0257,0.0267,0.0164,0.0166,0.0168,0,-0.0544,-0.0525,-0.0497,-0.0473,-0.0454,-0.0422,-0.0392,-0.0375,-0.0319,-0.0195,-0.0124,0.0014,0.0135,0.0283,0.0247,0.029,0.0224,0.0289,0.0142,0.0119,0.0103,0.0086,0.0075,0.0237,0.0239,0.0241,0.0243,0,-0.0494,-0.0495,-0.0473,-0.043,-0.039,-0.0338,-0.0274,-0.021,-0.0147,-0.0039,0.0146,0.0259,0.0394,0.0468,0.0488,0.0462,0.0293,0.0324,0.0314,0.0206,0.0191,0.0189,0.0044,0.0258,0.0257,0.0256,0.0255,0.0254,-0.0456,-0.0435,-0.0415,-0.0375,-0.0328,-0.0238,-0.0159,-0.0059,0.0077,0.0274,0.0354,0.0557,0.0598,0.064,0.0607,0.0502,0.0469,0.0416,0.0404,0.0402,0.0365,0.0264,0.0468,0.0468,0.0468,0.0467,0.0467,0,-0.0386,-0.0379,-0.035,-0.0289,-0.0219,-0.0204,-0.0069,0.0035,0.024,0.0429,0.0606,0.0766,0.082,0.0768,0.0651,0.0579,0.0516,0.0528,0.0494,0.0486,0.0425,0.0373,0.0551,0.0551,0.0551,0.0551,0.0551,0.0551,-0.0349,-0.0314,-0.031,-0.0197,-0.014,-0.0003,0.0095,0.024,0.0389,0.0651,0.0802,0.0902,0.0873,0.0792,0.0677,0.0626,0.0581,0.0589,0.0569,0.048,0.0467,0.0454,0.04,0.0581,0.0581,0.0625,0.0625,0.0625]}],[{"header":{"parameterUnit":"m.s-1","parameterCategory":2,"la1":30.2991,"la2":30.254,"lo1":-89.0895,"lo2":-89.0444,"dy":0.0017,"dx":0.0017,"nx":28,"ny":28,"refTime":"2025-03-25T09:00:00:Z","depth":"2","parameterNumber":2,"parameterNumberName":"U-component_of_CURRENTS"},"data":[0,0,0,0,0,0,0,0,0,0,0,0,0,0,0,0,0,0,0,0,0,0,0,0,0,0,0,0,0,0,0,0,0,0,0,0,0,0,0,0,0,0,0,0,0,0,0,0,0,0,0,0,0,0,0,0,0,0,0.1265,0.1266,0,0.1288,0.1288,0.1288,0.1316,0.1316,0.1317,0.1317,0.1341,0.1342,0.1342,0,0,0,0,0,0,0,0,0,0,0,0,0,0.128,0.1279,0.1265,0.1266,0.1266,0.1288,0.1288,0.1288,0.1316,0.1316,0.1317,0.1317,0.1341,0.1342,0.1342,0,0,0,0,0,0,0,0,0,0,0,0,0,0.1285,0.1279,0.1265,0.1282,0.1284,0.1288,0.1288,0.1288,0.1316,0.1316,0.1317,0.1317,0.1341,0.1342,0.1342,0.1333,0,0,0.1343,0.1344,0,0,0,0,0,0,0,0,0.1285,0.1285,0.1279,0.1281,0.1283,0.1299,0.1302,0.1303,0.1315,0.1304,0.1317,0.1318,0.1327,0.1329,0.1332,0.1334,0.1335,0.1343,0.1344,0.1344,0.1344,0,0,0,0,0,0,0,0.1285,0.1284,0.1275,0.1279,0.1282,0.13,0.1301,0.1303,0.1312,0.1305,0.1307,0.1309,0.1328,0.1331,0.1333,0.1335,0.1343,0.1344,0.1344,0.1344,0.1411,0.1412,0,0,0,0,0,0,0.1279,0.1283,0.1274,0.1275,0.1285,0.1299,0.13,0.1294,0.1312,0.1315,0.1308,0.131,0.133,0.1332,0.1334,0.139,0.1344,0.1344,0.1344,0.1409,0.1411,0.1413,0,0,0,0,0,0,0.1279,0.1277,0.1273,0.128,0.1281,0.1298,0.129,0.1294,0.1312,0.1314,0.1318,0.1325,0.1331,0.1333,0.1334,0.1389,0.1344,0.1345,0.1407,0.141,0.1412,0.146,0,0,0,0,0,0,0.1279,0.1277,0.1279,0.1279,0.128,0.1289,0.129,0.1294,0.1311,0.1314,0.1329,0.1332,0.1332,0.1333,0.1334,0.1388,0.1345,0.1406,0.1408,0.1411,0.1456,0.1464,0.147,0,0,0,0,0,0.1279,0.1282,0.1279,0.1279,0.128,0.1289,0.1292,0.1306,0.1312,0.1324,0.1321,0.1332,0.1354,0.1333,0.1335,0.139,0.1404,0.1408,0.1411,0.1453,0.1462,0.147,0,0,0,0,0,0,0.1296,0.1285,0.1282,0.1283,0.129,0.1294,0.131,0.1313,0.1322,0.1325,0.1326,0.1327,0.1358,0.1358,0.1336,0.142,0.1392,0.1396,0.1424,0.1432,0.1439,0.1428,0.1345,0,0,0,0,0,0.1297,0.1291,0.129,0.1291,0.1299,0.1305,0.1314,0.1318,0.1321,0.1327,0.1338,0.1353,0.1372,0.1385,0.1397,0.1424,0.1427,0.147,0.1476,0.1482,0.1475,0.1538,0.155,0.1424,0.1424,0.1424,0,0,0.1298,0.1296,0.1291,0.1294,0.1304,0.1308,0.1313,0.1328,0.1336,0.1327,0.1351,0.1369,0.1381,0.1418,0.1436,0.1426,0.1515,0.1486,0.1491,0.1481,0.1543,0.1555,0.1566,0.1426,0.1426,0.1425,0,0,0.1302,0.1305,0.1303,0.1311,0.1323,0.1323,0.1329,0.1342,0.136,0.1368,0.1381,0.1414,0.1437,0.1465,0.1478,0.1524,0.1544,0.1557,0.1588,0.165,0.166,0.167,0.1668,0.1677,0.1567,0.1568,0.1568,0,0.1307,0.1303,0.1308,0.1315,0.1322,0.133,0.1334,0.1349,0.1361,0.1388,0.1381,0.1445,0.1457,0.1513,0.1538,0.1541,0.1563,0.1555,0.1658,0.1668,0.1677,0.1673,0.1683,0.157,0.157,0.157,0.1569,0,0.1306,0.1311,0.1319,0.132,0.1328,0.1338,0.135,0.1378,0.1396,0.1416,0.1477,0.1488,0.1542,0.1563,0.156,0.1651,0.1639,0.1655,0.1636,0.1692,0.1685,0.1694,0.1574,0.1573,0.1572,0.1572,0,0,0.129,0.1311,0.1313,0.1326,0.1333,0.1344,0.1367,0.1402,0.1436,0.1469,0.1529,0.1568,0.161,0.1627,0.1655,0.1696,0.1771,0.1712,0.1714,0.1705,0.188,0.1741,0.1736,0.1826,0.1829,0.183,0.1841,0,0.1289,0.1301,0.1309,0.1326,0.1336,0.1361,0.1376,0.1412,0.1452,0.1517,0.1569,0.1625,0.1628,0.167,0.1723,0.1759,0.1801,0.1764,0.183,0.183,0.1698,0.1745,0.1584,0.157,0.1849,0.1851,0.1852,0,0.1278,0.1292,0.1302,0.1337,0.1345,0.1358,0.141,0.1431,0.1516,0.1557,0.164,0.1685,0.1764,0.176,0.1847,0.1834,0.1869,0.1877,0.1879,0.1737,0.1709,0.1564,0.1575,0.1866,0.1865,0.1864,0.1863,0,0.1256,0.129,0.1301,0.1311,0.1342,0.1373,0.1398,0.1454,0.1494,0.1605,0.1654,0.1748,0.1806,0.1868,0.1902,0.1901,0.1976,0.1978,0.1872,0.1861,0.1723,0.1695,0.2051,0.2051,0.2051,0.2051,0.2051,0,0.1237,0.1253,0.1304,0.1311,0.1352,0.1372,0.1421,0.1472,0.1544,0.1597,0.1692,0.1736,0.1847,0.1904,0.193,0.1911,0.201,0.1869,0.1865,0.173,0.1704,0.1965,0.1955,0.2052,0.2052,0.2052,0.2051,0,0.1201,0.1223,0.1262,0.1318,0.1341,0.1378,0.1442,0.1478,0.1541,0.162,0.1662,0.1764,0.1815,0.1881,0.1961,0.1921,0.1926,0.1906,0.17,0.167,0.1755,0.1748,0.1769,0.1764,0.176,0.1757,0.1754,0,0.1182,0.1199,0.1275,0.1302,0.1335,0.1387,0.1414,0.1484,0.1529,0.1607,0.1652,0.1727,0.1743,0.1771,0.1744,0.1734,0.1855,0.1567,0.152,0.1737,0.1732,0.1731,0.1729,0.1357,0.1351,0.1346,0.1343,0,0.1176,0.121,0.1234,0.129,0.134,0.1384,0.1442,0.1462,0.1529,0.1568,0.1587,0.1585,0.1593,0.1483,0.147,0.1451,0.1545,0.1464,0.1797,0.1435,0.1346,0.1341,0.1354,0.1301,0.1305,0.1308,0.131,0.1312,0.1181,0.1195,0.1233,0.1289,0.1334,0.136,0.1361,0.1399,0.1421,0.1405,0.1454,0.1365,0.1349,0.1199,0.1154,0.1128,0.1251,0.1193,0.121,0.1232,0.1165,0.1071,0.0959,0.0962,0.0963,0.0965,0.0967,0,0.1182,0.1192,0.123,0.1273,0.1286,0.1349,0.136,0.13,0.1268,0.124,0.1199,0.1007,0.0895,0.091,0.0772,0.0732,0.0764,0.0718,0.0762,0.0802,0.0839,0.0755,0.0439,0.0438,0.0437,0.0435,0,0,0.117,0.1169,0.118,0.121,0.125,0.1257,0.124,0.1124,0.1054,0.0907,0.0824,0.0815,0.083,0.0615,0.0583,0.0487,0.0648,0.0458,0.0878,0.097,0.1005,0.1103,0.1016,0,0,0,0,0]},{"header":{"parameterUnit":"m.s-1","parameterCategory":2,"la1":30.2991,"la2":30.254,"lo1":-89.0895,"lo2":-89.0444,"dy":0.0017,"dx":0.0017,"nx":28,"ny":28,"refTime":"2025-03-25T09:00:00:Z","depth":"2","parameterNumber":3,"parameterNumberName":"V-component_of_CURRENTS"},"data":[0,0,0,0,0,0,0,0,0,0,0,0,0,0,0,0,0,0,0,0,0,0,0,0,0,0,0,0,0,0,0,0,0,0,0,0,0,0,0,0,0,0,0,0,0,0,0,0,0,0,0,0,0,0,0,0,0,0,0.033,0.033,0,0.0322,0.0322,0.0322,0.0309,0.0308,0.0308,0.0308,0.028,0.0279,0.0279,0,0,0,0,0,0,0,0,0,0,0,0,0,0.0295,0.0296,0.033,0.033,0.033,0.0322,0.0322,0.0322,0.0309,0.0308,0.0308,0.0308,0.028,0.028,0.0279,0,0,0,0,0,0,0,0,0,0,0,0,0,0.0302,0.0297,0.033,0.0321,0.032,0.0322,0.0322,0.0322,0.0309,0.0308,0.0308,0.0307,0.028,0.028,0.0279,0.0286,0,0,0.0277,0.0277,0,0,0,0,0,0,0,0,0.0302,0.0304,0.0323,0.0322,0.0321,0.0315,0.0299,0.0309,0.0309,0.0315,0.0308,0.0307,0.0289,0.0288,0.029,0.0285,0.0284,0.0277,0.0277,0.0277,0.0276,0,0,0,0,0,0,0,0.0302,0.0304,0.0328,0.0322,0.0321,0.0304,0.0305,0.0301,0.0306,0.0314,0.0313,0.031,0.0289,0.029,0.0289,0.0283,0.0277,0.0277,0.0276,0.0276,0.0247,0.0247,0,0,0,0,0,0,0.0303,0.0304,0.0328,0.0328,0.0308,0.0305,0.0306,0.0318,0.0306,0.0304,0.031,0.0309,0.0292,0.029,0.0288,0.0279,0.0277,0.0276,0.0276,0.0248,0.0247,0.0247,0,0,0,0,0,0,0.0303,0.0306,0.0329,0.0313,0.0315,0.0307,0.032,0.0318,0.0309,0.0303,0.0301,0.0301,0.0291,0.0289,0.0287,0.0278,0.0276,0.0275,0.0248,0.0247,0.0247,0.0272,0,0,0,0,0,0,0.0302,0.0306,0.0303,0.0314,0.0316,0.0325,0.032,0.0319,0.0308,0.0307,0.0295,0.0293,0.0291,0.0288,0.0287,0.0277,0.0275,0.0249,0.0248,0.0247,0.0271,0.0272,0.0272,0,0,0,0,0,0.0301,0.0299,0.0304,0.0305,0.0317,0.0325,0.0324,0.0316,0.0308,0.0306,0.0305,0.0292,0.0281,0.0289,0.0286,0.0276,0.0249,0.0248,0.0247,0.0271,0.0272,0.0272,0,0,0,0,0,0,0.0281,0.0298,0.0303,0.0306,0.0314,0.0322,0.0315,0.0312,0.0309,0.0307,0.0299,0.0297,0.0289,0.0279,0.0287,0.0263,0.0258,0.0257,0.0277,0.0277,0.0278,0.0312,0.0274,0,0,0,0,0,0.0277,0.0282,0.0298,0.03,0.0305,0.031,0.0307,0.0308,0.0311,0.0308,0.0301,0.0291,0.0286,0.028,0.0274,0.0268,0.027,0.0254,0.0255,0.0256,0.0281,0.027,0.0273,0.0244,0.0244,0.0244,0,0,0.0275,0.0278,0.0285,0.0295,0.0302,0.0316,0.0307,0.0309,0.0317,0.0306,0.0307,0.0296,0.0285,0.0281,0.0274,0.027,0.0264,0.0254,0.0255,0.0281,0.027,0.0273,0.0276,0.0243,0.0243,0.0243,0,0,0.0272,0.0276,0.0282,0.0291,0.0298,0.0307,0.0306,0.0316,0.0314,0.032,0.031,0.0308,0.0288,0.0291,0.0287,0.0287,0.0268,0.0259,0.0291,0.0279,0.0283,0.0285,0.0291,0.0294,0.0257,0.0257,0.0257,0,0.0263,0.028,0.0283,0.0292,0.0302,0.0305,0.0323,0.0324,0.0329,0.0338,0.0321,0.0321,0.0303,0.0317,0.031,0.0292,0.0282,0.0291,0.0283,0.0285,0.0288,0.0293,0.0296,0.0258,0.0258,0.0258,0.0258,0,0.0277,0.0285,0.0289,0.0309,0.0319,0.0332,0.0347,0.0351,0.0348,0.0356,0.0365,0.0356,0.0361,0.0337,0.0324,0.0327,0.0313,0.0287,0.0287,0.0293,0.0297,0.03,0.026,0.026,0.0259,0.0259,0,0,0.0281,0.0296,0.03,0.0313,0.0332,0.0347,0.0363,0.0389,0.0417,0.0404,0.0442,0.0417,0.0416,0.0413,0.039,0.0377,0.0374,0.0335,0.0334,0.0353,0.0354,0.0337,0.0339,0.0333,0.0334,0.0334,0.0351,0,0.0294,0.0314,0.0321,0.035,0.0368,0.0382,0.0407,0.0429,0.0445,0.0479,0.0472,0.0493,0.0442,0.0449,0.0428,0.0392,0.0382,0.0373,0.0337,0.0337,0.033,0.0342,0.0338,0.0352,0.0354,0.0354,0.0354,0,0.0317,0.0323,0.0351,0.0384,0.0397,0.0413,0.0468,0.049,0.0536,0.0552,0.0572,0.0575,0.0574,0.0525,0.048,0.0469,0.042,0.0387,0.0386,0.0371,0.0326,0.0345,0.0357,0.0359,0.0359,0.0358,0.0358,0,0.033,0.0352,0.0373,0.0384,0.0418,0.0434,0.0458,0.0509,0.0549,0.0602,0.0647,0.0643,0.0657,0.0592,0.0519,0.0494,0.0471,0.0428,0.0377,0.0376,0.0371,0.0368,0.0405,0.0405,0.0405,0.0405,0.0405,0,0.0349,0.0368,0.0376,0.0388,0.043,0.0448,0.0508,0.0539,0.0605,0.0677,0.0682,0.0738,0.0668,0.065,0.056,0.0485,0.0499,0.0404,0.0382,0.0378,0.0375,0.0378,0.0375,0.0406,0.0406,0.0406,0.0406,0,0.0368,0.0374,0.0395,0.0419,0.0435,0.0464,0.0532,0.0584,0.0638,0.0737,0.076,0.0807,0.0784,0.0717,0.0635,0.055,0.0472,0.044,0.0451,0.043,0.0377,0.0375,0.0396,0.0395,0.0395,0.0395,0.0395,0,0.0375,0.0386,0.0416,0.0442,0.0451,0.0494,0.0542,0.0594,0.0654,0.078,0.0832,0.0864,0.0884,0.0773,0.0643,0.0518,0.0492,0.0429,0.0381,0.0401,0.0378,0.0376,0.0374,0.0386,0.0386,0.0386,0.0386,0,0.0386,0.0396,0.0418,0.047,0.0507,0.0567,0.0626,0.0684,0.077,0.0849,0.0948,0.0976,0.0902,0.0787,0.063,0.0533,0.0446,0.042,0.0446,0.0383,0.0391,0.0368,0.0367,0.0383,0.0384,0.0384,0.0384,0.0384,0.0393,0.0418,0.0452,0.0509,0.0561,0.0645,0.0698,0.0765,0.0864,0.0971,0.0999,0.1,0.091,0.0681,0.0571,0.0439,0.044,0.0369,0.037,0.0371,0.0361,0.0368,0.0355,0.0355,0.0355,0.0355,0.0355,0,0.0404,0.0448,0.0497,0.0563,0.0628,0.0649,0.0766,0.0812,0.0915,0.0959,0.1007,0.0889,0.0786,0.0663,0.0472,0.0371,0.0355,0.033,0.0338,0.034,0.0343,0.0331,0.0316,0.0316,0.0316,0.0316,0,0,0.0415,0.0469,0.0506,0.0612,0.0659,0.0738,0.0807,0.0872,0.0909,0.0932,0.0896,0.0884,0.0763,0.0618,0.0512,0.0411,0.0386,0.0379,0.0418,0.0443,0.0446,0.0374,0.0359,0,0,0,0,0]}],[{"header":{"parameterUnit":"m.s-1","parameterCategory":2,"la1":30.2991,"la2":30.254,"lo1":-89.0895,"lo2":-89.0444,"dy":0.0017,"dx":0.0017,"nx":28,"ny":28,"refTime":"2025-03-25T09:00:00:Z","depth":"4","parameterNumber":2,"parameterNumberName":"U-component_of_CURRENTS"},"data":[0,0,0,0,0,0,0,0,0,0,0,0,0,0,0,0,0,0,0,0,0,0,0,0,0,0,0,0,0,0,0,0,0,0,0,0,0,0,0,0,0,0,0,0,0,0,0,0,0,0,0,0,0,0,0,0,0,0,0.0405,0.0406,0,0.0418,0.0418,0.0418,0.0419,0.0419,0.0419,0.0419,0.0401,0.04,0.0399,0,0,0,0,0,0,0,0,0,0,0,0,0,0.0423,0.0422,0.0405,0.0406,0.0406,0.0418,0.0418,0.0418,0.0419,0.0419,0.0419,0.0419,0.0401,0.04,0.0399,0,0,0,0,0,0,0,0,0,0,0,0,0,0.0421,0.0422,0.0405,0.041,0.0411,0.0418,0.0418,0.0418,0.0419,0.0419,0.0419,0.0419,0.0401,0.04,0.0399,0.0392,0,0,0.0397,0.0396,0,0,0,0,0,0,0,0,0.0421,0.042,0.0409,0.041,0.041,0.0419,0.0417,0.0408,0.0419,0.0413,0.0419,0.0419,0.0405,0.0404,0.0403,0.0391,0.039,0.0397,0.0396,0.0396,0.0395,0,0,0,0,0,0,0,0.0421,0.042,0.0408,0.0409,0.041,0.0425,0.0424,0.0416,0.0406,0.0414,0.0414,0.0419,0.0405,0.0404,0.0403,0.039,0.0397,0.0396,0.0395,0.0395,0.0432,0.0434,0,0,0,0,0,0,0.0422,0.042,0.0408,0.0409,0.0419,0.0425,0.0424,0.0414,0.0407,0.0407,0.0419,0.0419,0.0405,0.0404,0.0402,0.0419,0.0396,0.0395,0.0394,0.0431,0.0433,0.0434,0,0,0,0,0,0,0.0422,0.042,0.0407,0.0417,0.0417,0.0424,0.0414,0.0414,0.0429,0.0412,0.0411,0.0435,0.0406,0.0403,0.0418,0.0417,0.0394,0.0394,0.0429,0.0431,0.0433,0.0436,0,0,0,0,0,0,0.0422,0.0419,0.0426,0.0417,0.0417,0.0421,0.0414,0.0415,0.0432,0.0432,0.0424,0.0422,0.0405,0.0419,0.0417,0.0416,0.0393,0.0427,0.043,0.0433,0.0434,0.0438,0.0442,0,0,0,0,0,0.0422,0.0425,0.0425,0.0425,0.0419,0.0422,0.0423,0.0427,0.0433,0.0441,0.0445,0.0423,0.0436,0.042,0.0417,0.0415,0.0426,0.0429,0.0432,0.0432,0.0437,0.0441,0,0,0,0,0,0,0.0428,0.0425,0.0425,0.0425,0.0429,0.0423,0.0435,0.0439,0.0448,0.0456,0.0438,0.0436,0.045,0.0443,0.0427,0.044,0.0428,0.0431,0.043,0.0434,0.0438,0.0474,0.0392,0,0,0,0,0,0.0434,0.0438,0.0435,0.0436,0.0441,0.0442,0.045,0.0453,0.0457,0.0462,0.0457,0.0459,0.0459,0.0457,0.0459,0.0461,0.0483,0.0463,0.0467,0.047,0.0502,0.0548,0.0559,0.0445,0.0445,0.0445,0,0,0.0431,0.0436,0.0435,0.0439,0.0443,0.0449,0.0446,0.0462,0.0467,0.0457,0.047,0.0474,0.0468,0.0473,0.0478,0.0466,0.0509,0.0474,0.0476,0.0507,0.0553,0.0564,0.0574,0.0448,0.0447,0.0447,0,0,0.0434,0.0437,0.0445,0.0451,0.0469,0.047,0.0479,0.0485,0.049,0.0506,0.0501,0.052,0.0513,0.0511,0.0507,0.054,0.0533,0.0531,0.0567,0.061,0.062,0.0629,0.0643,0.0653,0.0525,0.0525,0.0525,0,0.0442,0.0439,0.0449,0.0461,0.0466,0.048,0.0486,0.0493,0.0505,0.0512,0.0517,0.0541,0.0536,0.0542,0.056,0.0546,0.0566,0.0539,0.0614,0.0624,0.0633,0.0646,0.0657,0.0526,0.0525,0.0525,0.0525,0,0.0446,0.045,0.0456,0.0471,0.0481,0.049,0.0499,0.0513,0.0528,0.0538,0.0567,0.0576,0.0593,0.0587,0.0585,0.0634,0.0624,0.0615,0.0598,0.0644,0.0655,0.0666,0.0526,0.0526,0.0526,0.0526,0,0,0.0446,0.0457,0.046,0.046,0.0486,0.0488,0.0506,0.052,0.0536,0.0566,0.0592,0.0613,0.0638,0.0641,0.0635,0.0681,0.0749,0.0685,0.0687,0.0691,0.0835,0.0724,0.0726,0.0753,0.0755,0.0758,0.0805,0,0.0448,0.0458,0.0467,0.0472,0.0474,0.049,0.0501,0.0523,0.0549,0.0582,0.0612,0.0648,0.0646,0.0668,0.0711,0.0751,0.0787,0.0737,0.0799,0.0801,0.069,0.0738,0.0766,0.0814,0.0817,0.0819,0.082,0,0.0449,0.0455,0.0458,0.0462,0.0465,0.0481,0.0504,0.0519,0.057,0.0596,0.0646,0.0677,0.0745,0.0748,0.0839,0.0809,0.0839,0.0866,0.0867,0.0782,0.0713,0.0767,0.0841,0.0839,0.0838,0.0836,0.0835,0,0.0431,0.0443,0.0442,0.0445,0.0461,0.0473,0.0494,0.0535,0.0557,0.063,0.067,0.0733,0.0787,0.0848,0.0902,0.0887,0.1004,0.0974,0.0893,0.0884,0.0966,0.0956,0.1054,0.1054,0.1054,0.1054,0.1054,0,0.0418,0.0416,0.0439,0.0436,0.0444,0.0472,0.0499,0.0524,0.0592,0.0632,0.0691,0.0734,0.083,0.089,0.0927,0.0942,0.1016,0.0924,0.0902,0.0961,0.0951,0.0972,0.0962,0.1056,0.1055,0.1055,0.1055,0,0.0389,0.0403,0.0399,0.0422,0.0433,0.0445,0.0501,0.0526,0.0596,0.0658,0.0694,0.0773,0.084,0.0897,0.0995,0.0961,0.0995,0.0979,0.1034,0.1011,0.0837,0.0827,0.0894,0.0891,0.0888,0.0886,0.0884,0,0.0374,0.037,0.0383,0.0385,0.04,0.0432,0.0454,0.0523,0.056,0.0666,0.0693,0.0783,0.0823,0.0864,0.0923,0.0957,0.0944,0.0945,0.0906,0.0855,0.0828,0.0822,0.0815,0.088,0.0879,0.0878,0.0878,0,0.0341,0.0347,0.0342,0.0344,0.0366,0.0379,0.0428,0.0458,0.0546,0.0621,0.0681,0.0717,0.077,0.0814,0.0842,0.0866,0.0939,0.0916,0.0921,0.0885,0.0838,0.0812,0.0809,0.0868,0.087,0.0871,0.0871,0,0.0321,0.0306,0.0297,0.0292,0.0308,0.0317,0.0353,0.0407,0.0455,0.0589,0.0608,0.069,0.0771,0.0766,0.0798,0.0803,0.0783,0.0755,0.0769,0.078,0.0717,0.0639,0.061,0,0,0,0,0,0.0302,0.0268,0.0249,0.0237,0.0246,0.0259,0.0321,0.0371,0.0475,0.05,0.0557,0.0603,0.064,0.0676,0.0657,0.0721,0.0773,0.0692,0.0744,0.0816,0.0827,0.076,0,0,0,0,0,0,0.0285,0.0261,0.0227,0.0179,0.0174,0.0187,0.0228,0.0305,0.0325,0.0439,0.0465,0.0543,0.0588,0.0646,0.064,0.0649,0.0662,0.0744,0.0741,0.081,0.0819,0.0828,0.0764,0,0,0,0,0]},{"header":{"parameterUnit":"m.s-1","parameterCategory":2,"la1":30.2991,"la2":30.254,"lo1":-89.0895,"lo2":-89.0444,"dy":0.0017,"dx":0.0017,"nx":28,"ny":28,"refTime":"2025-03-25T09:00:00:Z","depth":"4","parameterNumber":3,"parameterNumberName":"V-component_of_CURRENTS"},"data":[0,0,0,0,0,0,0,0,0,0,0,0,0,0,0,0,0,0,0,0,0,0,0,0,0,0,0,0,0,0,0,0,0,0,0,0,0,0,0,0,0,0,0,0,0,0,0,0,0,0,0,0,0,0,0,0,0,0,0.0388,0.0388,0,0.0417,0.0418,0.0418,0.0434,0.0434,0.0434,0.0434,0.0447,0.0447,0.0448,0,0,0,0,0,0,0,0,0,0,0,0,0,0.0342,0.0343,0.0388,0.0388,0.0388,0.0417,0.0418,0.0418,0.0434,0.0434,0.0434,0.0434,0.0447,0.0447,0.0448,0,0,0,0,0,0,0,0,0,0,0,0,0,0.0366,0.0343,0.0388,0.04,0.0401,0.0417,0.0418,0.0418,0.0434,0.0434,0.0434,0.0434,0.0447,0.0447,0.0448,0.0449,0,0,0.0449,0.0449,0,0,0,0,0,0,0,0,0.0364,0.0367,0.0398,0.0399,0.0401,0.0422,0.0407,0.0428,0.0434,0.0421,0.0434,0.0434,0.0437,0.0439,0.0444,0.0449,0.045,0.0449,0.0449,0.045,0.045,0,0,0,0,0,0,0,0.0363,0.0366,0.0399,0.0398,0.04,0.0403,0.0407,0.0411,0.0428,0.0422,0.0424,0.0427,0.0438,0.0443,0.0444,0.045,0.0449,0.045,0.045,0.045,0.0477,0.0477,0,0,0,0,0,0,0.036,0.0365,0.0398,0.04,0.0383,0.0404,0.0408,0.0415,0.0428,0.0431,0.0427,0.0428,0.0443,0.0444,0.0445,0.0469,0.045,0.045,0.045,0.0476,0.0477,0.0477,0,0,0,0,0,0,0.0359,0.0363,0.0397,0.0383,0.0388,0.0405,0.0413,0.0416,0.0425,0.0432,0.0434,0.0435,0.0443,0.0444,0.0452,0.0468,0.045,0.0451,0.0476,0.0476,0.0477,0.0502,0,0,0,0,0,0,0.0357,0.0362,0.0366,0.0383,0.0388,0.0408,0.0413,0.0416,0.0428,0.0429,0.0439,0.044,0.0443,0.0451,0.0452,0.0469,0.0451,0.0475,0.0476,0.0477,0.0501,0.0504,0.0506,0,0,0,0,0,0.0356,0.0363,0.0366,0.037,0.0393,0.0409,0.0412,0.0424,0.0428,0.0433,0.044,0.044,0.0457,0.0452,0.0453,0.047,0.0475,0.0476,0.0477,0.05,0.0503,0.0506,0,0,0,0,0,0,0.0346,0.0366,0.0369,0.0382,0.0394,0.0411,0.042,0.0426,0.0436,0.0438,0.0443,0.0444,0.0459,0.0458,0.0451,0.048,0.0467,0.0469,0.0484,0.0488,0.049,0.0491,0.0451,0,0,0,0,0,0.0344,0.0355,0.0372,0.0381,0.039,0.0405,0.0413,0.042,0.0432,0.0437,0.0443,0.0452,0.0464,0.047,0.0476,0.0488,0.0464,0.0501,0.0503,0.0506,0.0507,0.0477,0.0477,0.0481,0.0481,0.048,0,0,0.0346,0.0355,0.0363,0.038,0.0393,0.0406,0.041,0.0425,0.0437,0.0436,0.0453,0.046,0.0468,0.0485,0.0492,0.0487,0.0491,0.0507,0.0509,0.0509,0.0478,0.0478,0.0477,0.0481,0.0481,0.0481,0,0,0.0349,0.0362,0.037,0.0381,0.0397,0.0408,0.0413,0.0431,0.0443,0.0456,0.0463,0.0476,0.0489,0.0502,0.051,0.0529,0.0504,0.0535,0.0551,0.0523,0.0522,0.0521,0.0483,0.0478,0.0538,0.0538,0.0538,0,0.0346,0.0362,0.0375,0.0383,0.0398,0.041,0.0426,0.0437,0.0453,0.0466,0.0463,0.049,0.0499,0.0524,0.0537,0.0536,0.0509,0.054,0.0525,0.0524,0.0523,0.0484,0.0478,0.0539,0.0539,0.0539,0.0539,0,0.0355,0.0368,0.0376,0.0393,0.0409,0.0425,0.0445,0.0458,0.0471,0.0484,0.0507,0.0514,0.0532,0.0541,0.0548,0.0555,0.0534,0.0529,0.0516,0.0524,0.0482,0.0476,0.0541,0.0541,0.054,0.054,0,0,0.0348,0.0377,0.038,0.0395,0.0419,0.0436,0.0457,0.0486,0.0507,0.0514,0.0534,0.056,0.0564,0.0572,0.058,0.0564,0.0535,0.0547,0.0545,0.0506,0.0459,0.0442,0.0433,0.0524,0.0523,0.0522,0.0431,0,0.0352,0.0374,0.0389,0.0419,0.0437,0.0459,0.0483,0.0508,0.0527,0.0545,0.0554,0.0575,0.0576,0.0589,0.0572,0.0552,0.0522,0.056,0.046,0.0457,0.0438,0.0427,0.052,0.0427,0.0425,0.0424,0.0423,0,0.0355,0.0372,0.0403,0.0444,0.0456,0.0477,0.0526,0.0547,0.0573,0.0587,0.0599,0.06,0.06,0.0588,0.0535,0.0557,0.0509,0.0479,0.0474,0.0446,0.0429,0.0419,0.0412,0.0413,0.0414,0.0415,0.0415,0,0.0351,0.0384,0.0414,0.0426,0.0469,0.0496,0.0526,0.0564,0.0593,0.0613,0.0624,0.0617,0.0614,0.0558,0.0508,0.0516,0.0425,0.0426,0.0356,0.0353,0.0385,0.0387,0.0362,0.0362,0.0362,0.0363,0.0363,0,0.035,0.0373,0.0418,0.0433,0.048,0.0508,0.0561,0.0587,0.0622,0.065,0.0647,0.0648,0.0605,0.0554,0.0497,0.0408,0.041,0.0351,0.0329,0.0397,0.0401,0.0379,0.0383,0.0359,0.036,0.0361,0.0361,0,0.034,0.0366,0.0402,0.0455,0.048,0.0515,0.059,0.0626,0.0651,0.0678,0.0684,0.0669,0.0603,0.0539,0.0447,0.0396,0.0314,0.0274,0.0342,0.0326,0.0259,0.0265,0.0187,0.0185,0.0184,0.0183,0.0182,0,0.0336,0.0354,0.0418,0.0451,0.0481,0.0541,0.059,0.0641,0.067,0.0685,0.0688,0.0642,0.0616,0.0464,0.0403,0.0276,0.0261,0.0212,0.0247,0.0255,0.0241,0.0249,0.0256,0.018,0.018,0.018,0.018,0,0.0329,0.0355,0.0386,0.0451,0.0509,0.0572,0.0632,0.065,0.0693,0.0715,0.0679,0.0618,0.0537,0.0447,0.0348,0.0262,0.0248,0.0199,0.0202,0.0234,0.0247,0.0236,0.0244,0.0176,0.0176,0.0176,0.0177,0,0.0325,0.0346,0.0391,0.0448,0.0518,0.0575,0.0614,0.0642,0.0671,0.0678,0.0661,0.059,0.0561,0.0436,0.0346,0.0263,0.0245,0.022,0.0221,0.0225,0.0274,0.0298,0.0216,0,0,0,0,0,0.0318,0.0342,0.039,0.0452,0.0521,0.0564,0.063,0.0661,0.0689,0.0662,0.0661,0.0585,0.0463,0.0417,0.0326,0.0324,0.0231,0.0215,0.0203,0.0153,0.0158,0.0209,0,0,0,0,0,0,0.0315,0.0352,0.0376,0.044,0.0486,0.0564,0.0606,0.0632,0.0612,0.0625,0.056,0.0552,0.0433,0.0505,0.0318,0.0297,0.0275,0.0169,0.0166,0.0151,0.0155,0.0159,0.0213,0,0,0,0,0]}]]